STARLINK-30944, 58451

Orbit data source: Space-Track

STARLINK-30944, 58451 is a payload satellite owned by SpaceX/Seattle (US) in LEO that was launched on Tue, 28 Nov 2023 UTC via an FALCON 9 launch vehicle from the Air Force Eastern Test Range (AFETR). Payload-class satellites include a variety of spacecraft equipped with specific instruments for various scientific and technological missions. These include communications satellites like Starlink; space stations such as the ISS; scientific satellites like the Hubble; Earth observation satellites from companies like Planet Labs, Umbra, and HawkEye 360; GPS; miniature CubeSats for education and research; and military/defense satellites.

Loading next visibility...
Identifier
58451, 2023-183Q
Orbit
LEO
Country
Flag of USUS
Related business
Manufacturer
SpaceX/Seattle
Mission
Operational Commercial Communications
Bus & Motor
STARLINK V2M, Unknown motor
Mass
730 kg wet, ~700 kg dry
Launch date (UTC)
2023-11-28 (3 years ago)
Launch vehicle
FALCON 9
Launch site
Air Force Eastern Test Range (AFETR)
Object type
Payload
Rocket body
Debris
Shape & HBR
Box + 2 Pan, 17.7 m
Radar Cross Section
33.884 m², Large (>1 m²)

Expand to show TLE details & history
Last TLE update: 2 days ago

TLE from 2 days ago
0 STARLINK-30944
1 58451U 23183Q   26171.07005811  .00004971  00000-0  19003-3 0  9996
2 58451  42.9978 183.2937 0001179 273.5548  86.5169 15.27581238142362
Epoch: 2026-06-20T01:40Z
TLE epoch observation values (Epoch: 2026-06-20T01:40:53.020Z)
Latitude
-0.00001°
Longitude
-110.21719°
Altitude
482.772 km
Speed
7.626 km/s
True Right ascension
12h 13m 10s
True Declination
0° 00' 00"
Sunlit
Object was in daylight at epoch
Visualization orbit readout
Latitude
Unknown
Longitude
Unknown
Altitude
Unknown
Speed
Unknown
Apparent Right ascension
Unknown
Apparent Declination
Unknown
Sunlit
N/A
Visualization observer readout
Local Sidereal Time
21:24:59
Azimuth
Unknown
Elevation
Unknown
Doppler factor
Unknown
Orbital elements
Apogee altitude
485.8 km
Perigee altitude
484.182 km
Semi-major axis
6,863.128 km
Eccentricity
0.00012
Inclination
42.9978°
RAAN
183.2937°
Arg. of periapsis
273.5548°
True anomaly
86.53039°
Mean anomaly
86.5169°
Eccentric anomaly
86.52364°
Mean motion
3.81733 °/min
Orbital period
94.31 mins
BSTAR
0.00019003
Loading maneuver chart data...
Computing Atmospheric mass density...
Loading historical data...
Loading historical data...
Loading historical data...
Loading historical data...
Loading historical data...
Loading historical data...
Loading historical data...

Documentation

Showing up to 5 results
|